Regional Weather Roundup
Issued by NWS Wakefield, VA

Home | Current Version | Previous Version | Graphics & Text | Print | Product List | Glossary On
Versions: 1 2 3 4 5 6 7 8 9 10 11 12 13 14 15 16 17 18 19 20 21 22 23 24 25 26 27 28 29 30 31 32 33 34 35 36 37 38 39 40 41 42 43 44 45 46 47 48 49 50
000
ASUS41 KAKQ 220715
RWRAKQ

REGIONAL WEATHER ROUNDUP
NATIONAL WEATHER SERVICE WAKEFIELD VA
200 AM EST WED FEB 22 2017

Note: "fair" indicates few or no clouds below 12,000 feet with no
significant weather and/or obstructions to visibility. * = Denotes
station may not report precipitation (e.g., rain,snow,etc.),
thunder or fog.

VAZ042-051-052>054-056-220800-
NORTHERN VIRGINIA

CITY           SKY/WX    TMP DP  RH WIND       PRES   REMARKS
WASH NATIONAL  CLOUDY    47  40  76 S6        30.08F
DULLES         CLOUDY    46  36  68 S6        30.06F
FORT BELVOIR   PTCLDY    45  38  75 SE5       30.07F
QUANTICO       PTCLDY    45  42  89 S5        30.09F
FREDERICKSBRG* CLOUDY    46  40  79 S3        30.07F
STAFFORD*      PTCLDY    45  38  78 CALM      30.11F
WARRENTON      PTCLDY    48  35  60 SE5       30.05F
CULPEPER*      CLOUDY    48  39  70 SE3       30.06F
MANASSAS*      PTCLDY    43  38  82 S5        30.07F
LEESBURG*      CLOUDY    46  41  81 MISG      30.06F
WINCHESTER     MOCLDY    45  36  70 SE3       30.01F
FRONT ROYAL*   CLOUDY    50  37  62 CALM      30.00F
LURAY*         CLOUDY    52  41  66 SW6       30.02F
$$

VAZ048-049-060>072-079>083-220800-
CENTRAL AND SOUTH CENTRAL VIRGINIA

CITY           SKY/WX    TMP DP  RH WIND       PRES   REMARKS
RICHMOND       MOCLDY    40  38  93 SE5       30.08F
CHESTERFIELD*  FAIR      39  23  52 S5        30.10F
PETERSBURG*    PTCLDY    39  37  94 CALM      30.09F
HANOVER        PTCLDY    41  36  82 CALM      30.09F
TAPPAHANNOCK*  PTCLDY    42  39  90 S3        30.09F
QUINTON*       FAIR      39  39 100 MISG      30.09F
CHARLOTTSVILLE PTCLDY    51  37  58 S9        30.04F
GORDONSVILLE*  CLOUDY    47  39  74 SW3       30.06F
ORANGE*        PTCLDY    46  37  71 CALM      30.07F
LOUISA*        CLOUDY    48  43  81 CALM      30.05F
BUMPASS*       FAIR      45  39  81 CALM      30.07F
FARMVILLE*     CLOUDY    45  40  82 CALM      30.06F
CREWE*         FAIR      41  41 100 CALM      30.08F
FORT PICKETT*  FAIR      42  39  88 NW5       30.08F
CHASE CITY*    FAIR      44  43  95 CALM      30.07F
CLARKSVILLE*   FAIR      46  45  93 CALM      30.07F
SOUTH HILL*    CLOUDY    44  43  97 CALM      30.12F
LAWRENCEVILLE* FAIR      44  42  92 SE3       30.07F
EMPORIA*       PTCLDY    39  37  93 CALM      30.10F
$$

VAZ088>098-220800-
SOUTHEAST VIRGINIA

CITY           SKY/WX    TMP DP  RH WIND       PRES   REMARKS
NORFOLK        PTCLDY    47  44  90 CALM      30.09F
VIRGINIA BEACH CLOUDY    46  44  93 E3        30.08F
NORFOLK NAVAL  MOCLDY    46  43  89 CALM      30.09F
WEST POINT*    MOCLDY    41  39  91 CALM      30.11F
SALUDA*        FAIR      41  41  99 CALM      30.10F
NEWPORT NEWS   CLOUDY    41  40  96 N3        30.09F
LANGLEY AFB    PTCLDY    44  42  95 CALM      30.08F
FORT EUSTIS    CLOUDY    45  41  86 CALM      30.07F
WILLIAMSBURG*  MOCLDY    46  43  87 CALM      30.10F
HR EXEC AP*    FAIR      39  36  87 CALM      30.08F
FRANKLIN*      CLOUDY    43  40  89 CALM      30.08F
US460-WAKEFLD  CLOUDY    43  41  93 CALM      30.09F
$$

VAZ020-022-025-037-045-220800-
WEST CENTRAL AND SOUTHWEST VIRGINIA

CITY           SKY/WX    TMP DP  RH WIND       PRES   REMARKS
STAUNTON*      LGT RAIN  49  39  68 CALM      30.05F
WAYNESBORO*    CLOUDY    49  37  62 CALM      30.04F
HOT SPRINGS VA CLOUDY    45  36  70 CALM      30.05F
LYNCHBURG      CLOUDY    44  36  73 CALM      30.08F
DANVILLE       CLOUDY    45  41  86 CALM      30.06F
SOUTH BOSTON*  PTSUNNY   42  41  95 CALM      30.07F
MARTINSVILLE   MOCLDY    41  37  85 CALM      30.09F
ROANOKE        MOCLDY    48  38  68 CALM      30.08F
BLACKSBURG     CLOUDY    46  40  77 CALM      30.08F
DUBLIN*        CLOUDY    48  41  76 CALM      30.07F
MARION*        CLOUDY    51  41  69 NE8       30.07S
HILLSVILLE*    CLOUDY    47  39  74 CALM      30.04F
RICHLANDS*     RAIN      51  44  76 SE6       30.01F
WISE*          CLOUDY    55  43  62 CALM      30.01F
ABINGDON*      PTCLDY    56  43  61 E6        30.01F
$$

MDZ021>025-VAZ099-100-220800-
SOUTHERN MARYLAND AND THE DELMARVA PENINSULA

CITY           SKY/WX    TMP DP  RH WIND       PRES   REMARKS
PATUXENT RIVER PTCLDY    43  42  97 SE6       30.09F
BAY BRIDGE APT CLOUDY    45  37  76 S5        30.08F
LEONARDTOWN    CLOUDY    41  37  87 SE3       30.09F
DOVER          CLOUDY    40  40 100 SE3       30.07F
GEORGETOWN     NOT AVBL
EASTON         CLOUDY    44  37  77 S5        30.12F
CAMBRIDGE      NOT AVBL
SALISBURY      CLOUDY    38  37  97 CALM      30.09F
OCEAN CITY     CLOUDY    41  39  93 CALM      30.10F
WALLOPS ISLAND PTCLDY    42  41  96 CALM      30.11F
ACCOMACK*      CLOUDY    44  42  93 CALM      30.09F
$$

NCZ012>017-030>032-220800-
NORTH CENTRAL AND EASTERN NORTH CAROLINA

CITY           SKY/WX    TMP DP  RH WIND       PRES   REMARKS
ROANOKE RAPIDS CLOUDY    45  43  93 CALM      30.08F
RALEIGH        MOCLDY    54  47  77 SE5       30.07F
ELIZABETH CITY PTCLDY    49  47  93 SE6       30.08F
AHOSKIE*         N/A     44  41  91 CALM      30.10S
EDENTON*       PTCLDY    51  49  93 SE5       30.09F
CURRITUCK*     PTCLDY    46  46 100 CALM      30.09F
KILL DEVIL HLS NOT AVBL
MANTEO         PTCLDY    49  49 100 SE6       30.10F
CAPE HATTERAS  PTCLDY    60  49  66 SE6       30.09F
TARBORO*       NOT AVBL
GOLDSBORO      CLOUDY    48  48 100 SE3       30.05F
WASHINGTON     PTCLDY    46  44  95 CALM      30.09F
GREENVILLE     PTCLDY    46  46 100 CALM      30.10F
NEW BERN       MOCLDY    48  48 100 CALM      30.09F FOG
WILMINGTON     MOCLDY    52  52 100 CALM      30.05F
$$

VAZ048-220800-
ELSEWHERE

CITY           SKY/WX    TMP DP  RH WIND       PRES   REMARKS
HARRISBURG PA  CLOUDY    43  36  76 E6        30.04F
BALTIMORE      CLOUDY    44  39  82 CALM      30.07F
ANNAPOLIS      CLOUDY    45  40  82 S8        30.07F
ANDREWS AFB    PTCLDY    44  37  78 S5        30.06F
PHILADELPHIA   CLOUDY    42  36  79 S3        30.10F
HENDERSON NC   MOCLDY    47  43  84 CALM      30.07F
GREENSBORO     LGT RAIN  54  45  71 SE5       30.04F
ROCKY MOUNT    CLOUDY    48  47  96 CALM      30.08F
$$

VAZ100-220800-
MARINE

STATION/POSITION TIME  TEMP    WIND        PRES    WAVE   SWELL
                       AIR SEA DIR/SP/G            HT/PER HT/PER
                 (UTC) (F)     (DEG/KT/KT) (MB)    (FT/S) (FT/S)
CAPE MAY NJ      0648          150/  6/  9 1018.8F
LEWES DE         0648          170/  4/  6 1019.1F
OCEAN-CITY-INLET 0648          220/  2/  2 1019.8F
WACHAPREAGUE VA  0648          180/  4/  5 1019.0F
THOMAS POINT MD  0700   43 42  180/ 10/ 11   N/A
GOOSES REEF MD   0700   44 42  180/ 10/ 12 1019.1    1
COVE POINT MD    0648          180/ 11/ 11 1019.5F
SOLOMONS ISLAND  0648          130/  6/  6   N/A
BISHOPS HEAD MD  0648          110/  5/  6 1019.4F
PINEY POINT MD   0648          160/  5/  5   N/A
POTOMAC MD       0700   44 44  170/  4/  4 1018.0    0
CAMBRIDGE MD     0648          170/  5/  7 1018.2F
LEWISETTA VA     0648          170/  4/  5 1018.7F
RAPPAHANNOCK LGT 0648          110/  5/  6 1019.6F
YORK RVR RNG VA  0648          150/  2/  3 1018.4F
YORKTOWN VA      0642             CALM     1018.8F
JAMESTOWN VA     0700   47 50   CALM  /  2   N/A     0
DOMINION TERM VA 0642          150/  2/  2 1019.0F
KIPTOPEKE VA     0648          160/  6/  7   N/A
CHES BAY BRIDGE  0642          140/  4/  5 1018.9F
CAPE HENRY VA    0642          140/  7/ 10   N/A
WILLOUBY STN VA  0642             CALM     1019.9F
S CRANEY ISL VA  0642           CALM  /  1 1019.0F
CAPE HENRY BUOY  0642      48                N/A     3/ 8
OFFSHORE WE BUOY 0651      47                N/A     4/ 7
64NM E OF VA BCH 0650   54 53  110/  4/  4 1019.0F   4/ 9   3/ 9
DUCK PIER NC     0642          130/  6/  6 1018.6F
44100 DUCK FRF   0635      48                N/A     4/ 8
44056 DUCK FRF   0630      49                N/A     4/ 8
OREGON INLET NC  0642           90/  4/  4 1019.2F
HATTERAS NC      0642          130/  5/  7 1018.6F
DIAMOND SHLS NC  0650   63 74  150/  8/ 10 1019.2F   4/10   3/10
CAPE LOOKOUT NC  0600   60     110/  8/  8 1018.5F
$$



USA.gov is the U.S. government's official web portal to all federal, state and local government web resources and services.